GFSFLT1_sfc_rhum_147.txt.gz
RH
44 46 48 54 60 56 58 63 65 64 69 67 66 67 63 67 67 57 61 65 64 66 67 71 71 72 73 74 74 75 77 78
45 49 51 58 60 57 59 61 66 64 62 65 62 65 62 61 60 58 62 63 64 64 69 71 72 73 74 70 74 78 80 78
44 50 55 60 63 60 61 59 63 67 68 70 71 69 68 66 61 61 62 62 65 61 68 69 71 76 75 69 69 79 78 77
42 48 57 62 63 63 61 60 64 67 66 69 69 67 65 66 66 66 64 64 65 68 68 70 72 72 76 72 74 69 78 75
42 49 55 60 66 65 62 61 61 58 69 74 76 80 77 74 72 68 68 67 68 67 69 71 72 72 73 72 67 76 79 81
46 50 50 59 65 70 67 62 60 64 71 74 81 82 81 75 74 74 73 72 71 69 72 72 75 78 76 79 81 80 82 81
48 47 48 62 69 69 66 62 62 66 72 75 79 82 81 81 80 80 80 80 79 77 77 78 80 82 85 86 86 88 86 85
50 51 55 61 67 62 53 55 61 68 74 77 79 81 80 77 79 84 83 86 87 86 85 86 86 86 87 92 95 95 92 89
52 54 58 56 57 62 56 54 64 68 76 80 81 80 73 75 78 82 86 91 91 90 96 87 90 96 95 96 98 96 96 95
55 55 56 56 65 68 66 61 65 68 77 82 83 82 76 79 79 81 90 91 92 96 90 89 92 96 96 97 97 98 96 97
57 55 54 57 71 75 76 72 71 71 76 80 81 85 88 90 90 89 86 90 95 96 93 90 90 93 92 97 97 97 97 97
72 70 76 84 84 87 88 87 85 80 79 84 91 93 92 92 92 89 86 85 81 86 94 93 95 94 92 93 94 94 94 94
84 90 93 92 96 95 94 93 92 88 84 89 92 94 94 95 91 85 84 86 80 82 84 82 82 90 95 94 93 94 95 94
91 95 95 96 95 97 96 96 97 96 90 93 95 96 95 95 92 88 83 85 83 82 84 90 83 82 84 87 93 94 95 95
90 90 92 93 95 97 98 97 97 96 96 96 97 97 96 95 92 87 82 80 83 80 83 86 92 80 81 83 84 84 87 90
81 87 88 88 94 93 92 94 97 96 97 97 97 96 95 92 90 84 81 84 83 81 79 81 86 76 77 83 85 86 85 87
73 74 74 75 79 87 86 90 95 93 97 97 96 96 95 94 94 87 85 83 88 88 88 86 91 86 73 69 80 88 84 82
64 66 64 64 66 69 86 89 88 92 96 97 96 96 96 96 95 94 94 92 92 93 89 89 88 86 71 73 75 88 90 90
63 61 60 58 53 63 71 71 84 87 86 89 95 95 95 96 96 96 96 97 96 94 96 90 88 81 69 70 75 94 89 88

GFSFLT1_sfc_rhum_153.txt.gz
RH
59 64 64 66 69 72 71 71 71 72 76 78 77 79 80 75 73 70 72 74 72 77 76 80 78 80 79 78 79 74 76 76
62 67 68 70 71 71 72 72 74 75 78 82 83 85 80 77 73 71 72 73 76 75 79 78 78 79 80 78 79 79 76 71
59 70 72 69 72 74 74 73 75 76 80 83 82 81 82 81 79 76 74 75 77 72 81 82 78 83 83 82 82 82 74 69
61 65 74 75 75 76 71 74 77 77 76 78 80 82 82 83 80 80 78 77 78 80 80 85 82 84 84 81 81 89 92 79
60 66 77 77 79 76 70 72 79 76 78 83 88 95 95 91 91 86 82 79 78 82 82 85 86 86 84 85 77 87 92 93
61 66 71 76 82 79 77 79 80 80 82 84 91 94 94 91 94 92 88 84 79 74 84 87 82 87 86 87 88 90 95 97
63 67 72 84 88 80 80 81 83 82 84 87 90 92 90 96 97 97 93 87 81 78 76 82 77 84 88 88 95 93 98 98
64 68 76 83 80 78 78 81 86 86 88 89 91 91 93 96 97 98 84 84 83 83 78 79 83 85 86 88 88 89 95 97
61 67 74 70 66 70 77 82 87 86 87 90 93 93 97 97 97 97 98 90 94 88 88 85 85 86 88 89 89 90 92 96
61 67 73 65 62 73 80 84 86 85 86 89 94 94 94 96 94 95 98 96 84 93 92 83 85 90 88 90 92 92 92 95
63 70 68 62 65 76 80 82 83 88 88 89 90 92 92 95 94 96 96 95 95 95 93 83 85 87 89 89 91 89 90 92
72 70 69 72 79 83 88 90 90 89 85 87 90 94 94 94 96 96 97 96 95 93 93 84 86 88 89 89 89 89 89 90
78 88 87 88 92 94 93 89 90 91 89 90 93 95 96 97 96 96 94 96 92 92 94 86 84 87 89 90 90 90 92 92
86 89 89 92 91 95 95 96 97 95 91 93 95 96 96 98 97 96 93 95 94 91 93 95 88 86 89 88 89 89 90 92
83 84 87 88 91 96 96 97 97 96 96 96 96 98 98 98 97 95 88 86 88 88 90 95 89 87 85 87 86 88 90 89
78 82 84 88 93 90 88 94 98 97 97 97 99 98 98 95 95 88 84 88 88 86 84 86 76 75 81 86 87 90 89 90
74 76 77 78 80 87 79 88 96 93 97 98 98 97 97 95 91 89 91 88 93 94 92 91 94 77 72 76 83 90 86 86
73 75 76 77 76 78 87 90 91 90 96 99 98 98 98 97 90 92 95 96 95 95 95 95 93 92 70 74 81 94 95 96
75 76 76 82 76 78 82 85 86 87 88 92 98 97 97 97 94 97 96 97 96 97 96 95 96 85 67 70 76 95 96 96

GFSFLT1_sfc_rhum_159.txt.gz
RH
51 50 51 46 48 51 53 54 60 61 56 55 51 50 52 51 51 55 63 62 65 61 58 66 60 58 58 60 62 58 59 61
51 54 55 52 53 54 52 56 60 56 52 51 50 48 49 51 51 61 62 63 66 61 59 63 63 63 65 64 64 68 63 59
56 57 57 56 55 54 56 53 54 51 46 48 47 50 50 52 54 58 62 65 66 60 66 64 68 63 68 69 69 74 66 70
56 58 59 56 57 59 56 53 52 52 54 52 51 52 50 48 53 54 61 65 66 68 67 67 65 64 70 68 68 79 86 73
52 55 57 57 56 57 56 56 54 53 53 45 43 33 35 52 55 54 56 64 67 66 67 66 65 64 66 69 66 76 79 84
52 53 52 53 58 57 60 60 58 57 53 50 45 49 51 53 53 56 59 61 65 64 66 66 65 64 70 68 73 74 78 88
50 50 52 55 57 60 63 61 60 59 54 55 53 53 52 44 48 50 54 59 60 60 60 64 66 66 69 69 74 75 78 80
53 57 58 63 65 64 64 60 60 60 59 56 56 55 54 51 51 52 53 56 59 56 57 62 64 68 68 73 74 72 77 82
53 57 57 64 66 64 62 61 62 61 59 58 56 54 50 50 54 52 52 61 63 56 59 58 66 69 67 69 70 67 75 81
52 55 60 64 64 66 65 62 62 61 57 54 56 57 55 52 57 53 58 62 57 64 60 58 65 69 69 71 71 72 75 79
54 55 62 62 61 65 68 64 62 60 56 54 53 59 58 61 62 66 68 72 71 69 63 62 65 69 69 69 71 73 75 76
62 63 65 63 61 66 74 76 72 62 55 56 62 71 71 71 71 73 79 78 71 67 65 67 71 74 75 75 72 75 75 77
64 95 92 86 94 96 96 79 74 67 59 62 75 80 74 74 76 76 77 80 73 70 71 69 68 72 76 78 80 79 80 80
68 80 86 96 87 95 93 96 95 85 67 74 82 87 80 81 79 77 76 80 79 70 71 79 76 73 75 74 78 76 77 78
70 70 73 76 83 91 93 92 91 91 89 87 88 90 86 84 79 75 69 68 68 68 68 75 78 74 71 73 71 74 77 77
69 72 74 72 74 76 77 82 91 91 92 92 93 91 83 75 76 68 66 70 69 59 60 62 60 61 72 74 72 72 72 74
67 69 70 70 69 73 68 72 87 84 92 93 93 90 88 83 79 73 74 70 80 84 75 77 81 67 71 74 71 75 67 66
64 67 68 66 65 64 67 71 74 75 90 94 94 90 88 88 79 82 88 91 85 86 87 84 84 80 71 75 80 85 85 84
57 60 63 65 62 61 61 62 66 67 68 85 91 89 90 91 91 92 92 89 89 88 88 87 84 80 70 72 77 86 88 87

GFSFLT1_sfc_rhum_162.txt.gz
RH
32 33 31 29 32 37 40 41 48 46 42 41 35 35 35 33 34 39 50 49 53 49 45 56 53 48 48 51 57 52 51 49
32 36 36 34 38 39 40 45 50 41 36 35 35 34 34 34 35 46 48 50 54 52 46 52 54 51 57 58 54 58 52 52
36 38 40 40 40 40 40 41 46 39 34 33 31 31 31 33 36 44 48 50 53 47 56 52 56 53 58 58 59 58 55 56
38 40 42 41 41 42 40 39 40 39 37 35 34 35 35 35 34 34 44 50 53 57 56 55 56 54 53 57 57 65 62 56
36 39 41 41 41 42 40 40 39 40 39 33 36 23 23 30 34 35 37 50 52 53 56 56 57 53 58 55 52 62 64 71
36 38 37 36 39 43 44 43 39 40 38 36 34 30 30 31 35 43 45 47 51 46 51 55 56 52 56 61 63 63 63 72
35 35 36 36 39 44 46 44 42 43 42 41 38 39 34 30 33 33 35 38 39 43 42 50 53 55 57 57 61 62 64 66
38 39 38 40 44 47 48 44 44 46 46 40 40 39 38 36 34 31 35 37 38 41 43 48 48 55 56 57 58 58 62 73
38 40 41 42 48 48 49 46 47 48 45 42 40 39 32 31 34 31 36 39 39 44 44 44 52 55 55 55 49 52 59 71
39 42 46 47 49 54 55 49 46 46 45 44 43 41 38 36 40 38 37 44 36 49 46 45 50 53 54 55 51 56 58 68
40 42 46 49 50 54 55 49 46 47 46 43 40 42 41 43 44 51 52 56 54 53 49 50 52 55 54 53 51 56 59 59
43 45 44 49 50 52 58 55 55 52 48 45 44 50 55 53 55 57 64 63 54 52 52 54 57 61 62 62 58 61 61 61
42 79 72 65 78 84 86 67 64 57 48 47 58 65 58 58 61 61 62 64 56 55 57 56 56 59 62 65 67 66 68 69
46 60 82 100 85 100 91 96 95 74 52 58 69 73 67 72 67 63 64 66 62 54 61 70 65 62 62 60 64 64 66 69
49 58 65 74 76 98 100 93 99 100 92 82 83 89 90 84 70 63 58 54 53 52 57 67 72 64 59 58 56 61 69 70
55 58 60 64 70 77 78 83 100 100 100 100 100 96 81 68 68 55 52 54 51 45 47 49 50 51 65 63 59 59 61 65
52 55 58 60 62 65 64 70 88 84 100 96 94 91 87 80 64 57 59 58 72 81 63 67 77 57 71 72 60 66 56 56
52 54 57 54 56 58 60 63 68 66 89 89 88 87 83 84 72 73 86 88 84 86 88 88 91 85 70 73 72 84 84 82
45 46 50 51 50 53 54 54 57 58 57 75 87 85 83 83 85 86 88 92 89 88 89 92 89 88 67 71 72 91 89 85

GFSFLT1_sfc_rhum_165.txt.gz
RH
34 34 30 26 28 35 36 40 46 44 39 38 34 35 33 31 32 38 44 44 46 45 39 51 49 45 48 52 56 50 49 48
32 34 30 28 32 35 37 41 47 40 36 34 34 34 34 34 36 41 42 45 48 46 41 46 50 50 55 55 53 56 48 49
32 33 31 32 34 36 37 41 44 35 30 29 30 30 30 32 34 42 43 44 47 40 50 46 53 51 54 56 57 55 48 52
32 34 35 34 37 38 36 38 39 34 33 33 33 32 35 35 36 34 40 43 45 50 49 50 52 50 49 53 55 58 58 53
29 33 36 37 37 37 36 37 37 35 37 32 36 27 27 29 31 32 36 44 46 45 49 50 52 48 53 52 49 55 58 58
29 33 34 35 36 38 38 37 35 37 34 33 34 29 31 30 31 42 40 46 45 40 44 48 51 47 52 56 57 56 52 56
27 30 33 35 34 39 41 40 35 38 36 37 35 36 31 30 33 36 34 36 36 40 38 45 48 50 52 51 55 54 55 59
29 32 34 38 38 44 44 37 36 39 41 40 39 39 36 36 36 30 33 35 34 40 40 45 44 50 51 51 52 53 52 63
33 34 37 37 41 44 45 38 39 40 42 40 39 38 33 33 31 30 33 34 35 42 42 42 46 48 48 50 44 46 52 59
34 35 41 42 44 49 50 40 40 43 42 43 42 38 38 35 38 38 38 40 34 45 43 44 46 48 48 49 45 52 53 57
33 33 42 42 45 50 50 43 42 44 44 44 41 42 42 41 40 42 46 50 49 48 45 47 49 51 50 49 48 52 54 54
35 35 39 40 44 47 53 49 49 50 50 45 46 51 50 48 50 52 57 56 50 47 48 50 52 55 56 56 53 57 58 57
33 59 51 49 58 65 67 60 60 58 49 46 61 63 55 54 56 55 57 54 50 51 51 50 50 54 56 58 59 59 62 64
33 47 62 100 71 92 71 75 78 66 54 64 69 68 61 62 60 57 58 58 55 53 56 60 57 56 55 54 57 59 61 63
37 48 58 67 70 99 100 84 93 88 82 75 76 81 83 72 62 58 56 53 51 51 57 62 64 57 52 51 51 56 62 64
40 49 58 63 74 90 82 87 100 100 100 99 100 97 82 64 62 53 50 51 48 43 47 48 47 48 62 59 53 54 56 58
40 47 52 60 65 78 76 81 92 87 100 100 100 98 100 76 59 52 55 55 62 80 56 62 67 50 70 71 59 63 54 54
42 49 51 56 63 70 69 70 73 74 94 100 99 96 95 97 61 67 86 98 83 86 91 85 88 82 70 70 71 80 83 83
40 44 48 52 52 54 56 57 61 65 66 80 96 90 91 98 98 94 99 94 92 85 87 90 85 84 68 69 71 92 86 83